Rochester/St. Mary\'s Hospita, MN

4:58 AM CDT on June 18, 2018 (GMT -0500)
Rochester/St. Mary\'s Hospita

Weather History for K9MN - October, 2017

Change the Weather History Date:

Friday, October 13, 2017

  Actual Average (KRST) Record (KRST)
Temperature  
Mean Temperature 50 °F -  
Max Temperature 55 °F 58 °F 85 °F (1975)
Min Temperature 45 °F 38 °F 15 °F (1917)
Degree Days  
Heating Degree Days 15    
Moisture  
Dew Point 46 °F    
Average Humidity 81    
Maximum Humidity 97    
Minimum Humidity 56    
Precipitation  
Precipitation 0.05 in - - ()
Sea Level Pressure  
Sea Level Pressure 30.10 in    
Wind  
Wind Speed 6 mph (West)    
Max Wind Speed 14 mph    
Max Gust Speed 21 mph    
Visibility 10 miles    
Events      
Averages and records for this station are not official NWS values.
T = Trace of Precipitation, MM = Missing Value Source: NWS Daily Summary

Daily Weather History Graph

Daily Weather History Graph

Search for Another Location

Airport or City:

Astronomy

Oct. 13, 2017 Rise Set
Actual Time 7:22 AM CDT 6:28 PM CDT
Civil Twilight 6:53 AM CDT 6:57 PM CDT
Nautical Twilight 6:19 AM CDT 7:31 PM CDT
Astronomical Twilight 5:46 AM CDT 8:04 PM CDT
Moon 12:31 AM CDT (10/13) 3:27 PM CDT (10/13)
Length of Visible Light 12h 04m
Length of Day
11h 06m
Last Quarter, 37% of the Moon is Illuminated
Oct 13
Last Quarter
Oct 19
New
Oct 27
First Quarter
Nov 4
Full
Nov 10
Last Quarter

Hourly Weather History & Observations

Time (CDT) Temp. Dew Point Humidity Pressure Visibility Wind Dir Wind Speed Gust Speed Precip Events Conditions
12:12 AM 54.0 °F 50.7 °F 89% 30.04 in 10.0 mi South 9.2 mph 19.6 mph N/A   Overcast
12:31 AM 54.0 °F 50.9 °F 89% 30.04 in 10.0 mi South 11.5 mph - N/A   Overcast
12:52 AM 53.8 °F 50.9 °F 90% 30.03 in 10.0 mi South 11.5 mph 18.4 mph N/A   Overcast
1:12 AM 53.6 °F 50.9 °F 91% 30.04 in 10.0 mi South 10.4 mph 16.1 mph N/A   Overcast
1:31 AM 53.4 °F 50.9 °F 91% 30.04 in 10.0 mi South 8.1 mph 16.1 mph N/A   Overcast
1:52 AM 53.1 °F 50.9 °F 92% 30.04 in 10.0 mi South 11.5 mph - N/A   Overcast
2:12 AM 53.1 °F 50.9 °F 92% 30.04 in 10.0 mi South 5.8 mph - N/A   Overcast
2:31 AM 53.1 °F 51.1 °F 93% 30.05 in 10.0 mi South 6.9 mph - N/A   Overcast
2:52 AM 52.9 °F 50.9 °F 93% 30.05 in 10.0 mi South 5.8 mph - N/A   Overcast
3:12 AM 52.7 °F 50.9 °F 94% 30.05 in 10.0 mi South 5.8 mph - N/A   Overcast
3:31 AM 52.7 °F 50.9 °F 94% 30.05 in 10.0 mi SSW 3.5 mph - N/A   Overcast
3:52 AM 52.2 °F 50.9 °F 95% 30.05 in 10.0 mi South 5.8 mph - N/A   Scattered Clouds
4:12 AM 52.0 °F 50.9 °F 96% 30.05 in 10.0 mi South 4.6 mph - N/A   Clear
4:31 AM 51.8 °F 50.9 °F 97% 30.05 in 10.0 mi SSW 6.9 mph - N/A   Clear
4:52 AM 51.8 °F 50.9 °F 97% 30.05 in 10.0 mi SSW 5.8 mph - N/A   Scattered Clouds
5:12 AM 52.2 °F 51.1 °F 96% 30.05 in 10.0 mi SW 6.9 mph - N/A   Mostly Cloudy
5:32 AM 52.2 °F 51.1 °F 96% 30.05 in 10.0 mi WSW 4.6 mph - N/A   Mostly Cloudy
5:52 AM 52.2 °F 51.1 °F 96% 30.06 in 10.0 mi West 8.1 mph - N/A   Overcast
6:12 AM 52.5 °F 51.1 °F 95% 30.07 in 10.0 mi West 11.5 mph 20.7 mph N/A   Overcast
6:32 AM 52.2 °F 50.5 °F 94% 30.07 in 10.0 mi West 8.1 mph 16.1 mph N/A   Overcast
6:52 AM 51.8 °F 50.0 °F 94% 30.07 in 10.0 mi West 9.2 mph 17.3 mph N/A   Overcast
7:12 AM 51.3 °F 49.8 °F 95% 30.08 in 10.0 mi West 13.8 mph 19.6 mph N/A   Overcast
7:32 AM 50.9 °F 48.9 °F 93% 30.08 in 10.0 mi WNW 8.1 mph - N/A   Mostly Cloudy
7:52 AM 50.2 °F 48.6 °F 94% 30.10 in 10.0 mi WNW 11.5 mph - N/A   Scattered Clouds
8:12 AM 50.0 °F 48.2 °F 94% 30.10 in 10.0 mi WNW 4.6 mph - N/A   Clear
8:32 AM 50.4 °F 47.1 °F 89% 30.12 in 10.0 mi West 8.1 mph - N/A   Clear
8:52 AM 50.4 °F 46.0 °F 85% 30.10 in 10.0 mi Calm Calm - N/A   Clear
9:12 AM 51.1 °F 45.1 °F 80% 30.12 in 10.0 mi WNW 6.9 mph - N/A   Clear
9:32 AM 51.8 °F 44.4 °F 76% 30.12 in 10.0 mi NW 5.8 mph - N/A   Clear
9:52 AM 52.2 °F 43.7 °F 73% 30.14 in 10.0 mi NW 11.5 mph - N/A   Clear
10:11 AM 52.9 °F 43.9 °F 71% 30.12 in 10.0 mi WNW 6.9 mph - N/A   Clear
10:32 AM 53.1 °F 43.7 °F 71% 30.11 in 10.0 mi NNE 3.5 mph - N/A   Scattered Clouds
10:52 AM 53.6 °F 43.7 °F 69% 30.12 in 10.0 mi North 6.9 mph - N/A   Mostly Cloudy
11:11 AM 52.9 °F 43.7 °F 71% 30.16 in 10.0 mi WNW 9.2 mph - N/A   Overcast
11:32 AM 52.7 °F 44.2 °F 73% 30.14 in 10.0 mi Calm Calm - N/A   Overcast
11:52 AM 51.4 °F 46.8 °F 84% 30.14 in 10.0 mi Calm Calm - 0.04 in   Overcast
12:11 PM 51.4 °F 47.3 °F 86% 30.15 in 10.0 mi WSW 4.6 mph - N/A   Overcast
12:32 PM 52.0 °F 48.4 °F 88% 30.14 in 10.0 mi Calm Calm - 0.01 in   Overcast
12:52 PM 51.6 °F 48.2 °F 88% 30.12 in 10.0 mi WNW 5.8 mph - 0.01 in   Overcast
1:11 PM 52.2 °F 47.3 °F 83% 30.12 in 10.0 mi WNW 6.9 mph - N/A   Overcast
1:32 PM 52.7 °F 46.4 °F 79% 30.10 in 10.0 mi North 3.5 mph - N/A   Overcast
1:52 PM 52.7 °F 46.6 °F 80% 30.11 in 10.0 mi Calm Calm - N/A   Overcast
2:11 PM 52.9 °F 46.6 °F 79% 30.12 in 10.0 mi NW 6.9 mph - N/A   Overcast
2:32 PM 52.9 °F 45.3 °F 75% 30.12 in 10.0 mi NW 10.4 mph - N/A   Overcast
2:52 PM 53.1 °F 43.9 °F 71% 30.12 in 10.0 mi NW 5.8 mph - N/A   Mostly Cloudy
3:11 PM 53.6 °F 43.7 °F 69% 30.12 in 10.0 mi North 3.5 mph - N/A   Scattered Clouds
3:32 PM 54.0 °F 43.3 °F 67% 30.11 in 10.0 mi North 5.8 mph - N/A   Clear
3:52 PM 54.5 °F 43.3 °F 66% 30.12 in 10.0 mi North 3.5 mph - N/A   Scattered Clouds
4:12 PM 54.5 °F 42.8 °F 65% 30.11 in 10.0 mi NNE 4.6 mph - N/A   Scattered Clouds
4:32 PM 54.5 °F 42.6 °F 64% 30.10 in 10.0 mi NNE 4.6 mph - N/A   Clear
4:52 PM 54.5 °F 41.9 °F 62% 30.11 in 10.0 mi North 6.9 mph - N/A   Clear
5:12 PM 54.7 °F 42.3 °F 63% 30.11 in 10.0 mi North 4.6 mph - N/A   Clear
5:32 PM 55.4 °F 42.3 °F 61% 30.11 in 10.0 mi NNE 4.6 mph - N/A   Clear
5:52 PM 55.0 °F 40.5 °F 58% 30.11 in 10.0 mi North 3.5 mph - N/A   Clear
6:12 PM 54.5 °F 39.2 °F 56% 30.12 in 10.0 mi North 3.5 mph - N/A   Clear
6:32 PM 54.0 °F 38.7 °F 56% 30.12 in 10.0 mi NNE 3.5 mph - N/A   Clear
6:52 PM 53.8 °F 38.7 °F 57% 30.12 in 10.0 mi Calm Calm - N/A   Clear
7:12 PM 53.8 °F 39.0 °F 57% 30.13 in 10.0 mi Calm Calm - N/A   Clear
7:32 PM 53.6 °F 40.1 °F 60% 30.14 in 10.0 mi Calm Calm - N/A   Clear
7:52 PM 52.7 °F 40.6 °F 64% 30.14 in 10.0 mi Calm Calm - N/A   Clear
8:12 PM 50.7 °F 42.3 °F 73% 30.14 in 10.0 mi Calm Calm - N/A   Clear
8:32 PM 49.5 °F 43.2 °F 79% 30.14 in 10.0 mi Calm Calm - N/A   Clear
8:52 PM 48.6 °F 43.7 °F 83% 30.15 in 10.0 mi Calm Calm - N/A   Clear
9:12 PM 48.9 °F 43.3 °F 81% 30.15 in 10.0 mi Calm Calm - N/A   Clear
9:32 PM 48.2 °F 43.7 °F 84% 30.16 in 10.0 mi Calm Calm - N/A   Clear
9:52 PM 46.4 °F 43.9 °F 91% 30.17 in 10.0 mi Calm Calm - N/A   Clear
10:12 PM 45.5 °F 43.0 °F 91% 30.17 in 10.0 mi Calm Calm - N/A   Clear
10:32 PM 47.3 °F 42.8 °F 84% 30.16 in 10.0 mi Calm Calm - N/A   Clear
10:52 PM 46.4 °F 42.6 °F 87% 30.16 in 10.0 mi Calm Calm - N/A   Clear
11:12 PM 45.3 °F 43.2 °F 92% 30.16 in 10.0 mi Calm Calm - N/A   Clear
11:32 PM 45.7 °F 42.8 °F 90% 30.16 in 10.0 mi Calm Calm - N/A   Clear
11:51 PM 45.7 °F 41.9 °F 87% 30.16 in 10.0 mi Calm Calm - N/A   Clear